This is the latest recevied weather packets stored in our database for station/object DG6YGE-6. If no packets are shown the sender has not sent any weather packets the latest 10 day(s).
| Time | Temp. | Humidity | Pressure | Rain* | Wind** | Luminosity | Snow |
|---|---|---|---|---|---|---|---|
| 1788349749 | 20° C | 69% | 1018.4 hPa | 0 mm | - | 153 W/m² | - |
| 1788349150 | 20° C | 67% | 1018.4 hPa | 0 mm | - | 177 W/m² | - |
| 1788348549 | 20° C | 69% | 1018.4 hPa | 0 mm | - | 538 W/m² | - |
| 1788347950 | 20° C | 69% | 1018.6 hPa | 0 mm | - | 663 W/m² | - |
| 1788347352 | 19.44° C | 69% | 1018.5 hPa | 0 mm | - | 527 W/m² | - |
| 1788346752 | 20° C | 68% | 1018.6 hPa | 0 mm | - | 177 W/m² | - |
| 1788346152 | 19.44° C | 71% | 1018.7 hPa | 0 mm | - | 381 W/m² | - |
| 1788345552 | 19.44° C | 72% | 1018.7 hPa | 0 mm | - | 565 W/m² | - |
| 1788344952 | 19.44° C | 72% | 1018.8 hPa | 0 mm | - | 741 W/m² | - |
| 1788344353 | 18.89° C | 77% | 1018.7 hPa | 0 mm | - | 775 W/m² | - |
| 1788343752 | 18.33° C | 78% | 1018.8 hPa | 0 mm | - | 669 W/m² | - |
| 1788343152 | 17.78° C | 80% | 1019 hPa | 0 mm | - | 652 W/m² | - |
| 1788342552 | 17.22° C | 80% | 1019 hPa | 0 mm | - | 442 W/m² | - |
| 1788341952 | 17.22° C | 83% | 1019 hPa | 0 mm | - | 354 W/m² | - |
| 1788341352 | 16.67° C | 84% | 1019 hPa | 0 mm | - | 279 W/m² | - |
| 1788340752 | 16.67° C | 85% | 1019 hPa | 0 mm | - | 239 W/m² | - |
| 1788340152 | 16.11° C | 87% | 1018.9 hPa | 0 mm | - | 242 W/m² | - |
| 1788339552 | 16.11° C | 89% | 1019 hPa | 0 mm | - | 328 W/m² | - |
| 1788338952 | 16.11° C | 89% | 1019 hPa | 0 mm | - | 195 W/m² | - |
| 1788338352 | 15.56° C | 90% | 1019 hPa | 0 mm | - | 155 W/m² | - |
| 1788337752 | 15.56° C | 91% | 1018.9 hPa | 0 mm | - | 149 W/m² | - |
| 1788337152 | 15.56° C | 92% | 1019 hPa | 0 mm | - | 155 W/m² | - |
| 1788336552 | 15° C | 93% | 1018.9 hPa | 0 mm | - | 254 W/m² | - |
| 1788335953 | 15° C | 94% | 1018.8 hPa | 0 mm | - | 370 W/m² | - |
| 1788335352 | 14.44° C | 95% | 1018.7 hPa | 0 mm | - | 406 W/m² | - |
* Rain latest hour (hover to see other rain measurements)
** Current wind speed in m/s (hover to see current wind gust speed)